TimeCET,TemperatureF,Dew PointF,Humidity,Sea Level PressureIn,VisibilityMPH,Wind Direction,Wind SpeedMPH,Gust SpeedMPH,PrecipitationIn,Events,Conditions,WindDirDegrees,DateUTC
12:00 AM,41.0,41.0,100,30.30,0.2,Variable,1.2,-,N/A,Fog,Fog,0,2013-01-08 23:00:00
12:30 AM,41.0,41.0,100,30.27,0.1,NE,1.2,-,N/A,Fog,Fog,40,2013-01-08 23:30:00
1:00 AM,39,38,95,30.29,0,Calm,Calm,,,Fog,Partial Fog,,2013-01-09 00:00:00
1:00 AM,41.0,39.2,93,30.27,0.1,Calm,Calm,-,N/A,Fog,Fog,0,2013-01-09 00:00:00
1:30 AM,41.0,41.0,100,30.27,0.1,Calm,Calm,-,N/A,Fog,Fog,0,2013-01-09 00:30:00
2:30 AM,42.8,42.8,100,30.24,0.1,Calm,Calm,-,N/A,Fog,Fog,0,2013-01-09 01:30:00
3:00 AM,42.8,42.8,100,30.24,0.1,Calm,Calm,-,N/A,Fog,Fog,0,2013-01-09 02:00:00
3:30 AM,41.0,41.0,100,30.27,0.1,Calm,Calm,-,N/A,Fog,Fog,0,2013-01-09 02:30:00
4:00 AM,41.0,41.0,100,30.24,0.1,Calm,Calm,-,N/A,Fog,Fog,0,2013-01-09 03:00:00
4:30 AM,41.0,41.0,100,30.24,0.1,Calm,Calm,-,N/A,Fog,Fog,0,2013-01-09 03:30:00
5:00 AM,42.8,41.0,93,30.24,0.1,Calm,Calm,-,N/A,Fog,Fog,0,2013-01-09 04:00:00
5:30 AM,41.0,41.0,100,30.24,0.1,Calm,Calm,-,N/A,Fog,Fog,0,2013-01-09 04:30:00
6:00 AM,41.0,41.0,100,30.21,0.1,Calm,Calm,-,N/A,Fog,Fog,0,2013-01-09 05:00:00
6:30 AM,41.0,41.0,100,30.24,0.1,Calm,Calm,-,N/A,Fog,Fog,0,2013-01-09 05:30:00
7:00 AM,40,39,97,30.25,0,Calm,Calm,,,Fog,Partial Fog,,2013-01-09 06:00:00
7:00 AM,41.0,41.0,100,30.24,0.1,Calm,Calm,-,N/A,Fog,Fog,0,2013-01-09 06:00:00
7:30 AM,39.2,39.2,100,30.24,0.1,Calm,Calm,-,N/A,Fog,Fog,0,2013-01-09 06:30:00
8:00 AM,39.2,39.2,100,30.24,0.0,Calm,Calm,-,N/A,Fog,Fog,0,2013-01-09 07:00:00
8:30 AM,37.4,37.4,100,30.24,0.0,Calm,Calm,-,N/A,Fog,Fog,0,2013-01-09 07:30:00
9:00 AM,37.4,37.4,100,30.24,0.0,Calm,Calm,-,N/A,Fog,Fog,0,2013-01-09 08:00:00
9:30 AM,39.2,39.2,100,30.24,0.1,Calm,Calm,-,N/A,Fog,Fog,0,2013-01-09 08:30:00
9:35 AM,41.0,41.0,100,30.24,0.5,Calm,Calm,-,N/A,Fog,Fog,0,2013-01-09 08:35:00
9:41 AM,41.0,41.0,100,30.24,1.2,Calm,Calm,-,N/A,,Partly Cloudy,0,2013-01-09 08:41:00
9:47 AM,42.8,42.8,100,30.24,2.2,Calm,Calm,-,N/A,,Partly Cloudy,0,2013-01-09 08:47:00
10:00 AM,44.6,44.6,100,30.24,2.8,Calm,Calm,-,N/A,,Partly Cloudy,0,2013-01-09 09:00:00
10:09 AM,46.4,46.4,100,30.24,4.3,Calm,Calm,-,N/A,,Partly Cloudy,0,2013-01-09 09:09:00
10:30 AM,48.2,48.2,100,30.24,5.6,Calm,Calm,-,N/A,,Partly Cloudy,0,2013-01-09 09:30:00
11:00 AM,51.8,51.8,100,30.24,5.6,Calm,Calm,-,N/A,,Partly Cloudy,0,2013-01-09 10:00:00
11:30 AM,57.2,53.6,88,30.24,6.2,WSW,5.8,-,N/A,,Partly Cloudy,250,2013-01-09 10:30:00
12:00 PM,57.2,51.8,82,30.24,6.2,WSW,11.5,-,N/A,,Partly Cloudy,240,2013-01-09 11:00:00
12:30 PM,59.0,50.0,72,30.24,6.2,WSW,11.5,-,N/A,,Partly Cloudy,240,2013-01-09 11:30:00
1:00 PM,58,46,56,30.23,12,WSW,16.1,,,,Partly Cloudy,240,2013-01-09 12:00:00
1:00 PM,59.0,50.0,72,30.21,6.2,WSW,13.8,-,N/A,,Partly Cloudy,240,2013-01-09 12:00:00
1:30 PM,59.0,50.0,72,30.21,6.2,SW,12.7,-,N/A,,Partly Cloudy,230,2013-01-09 12:30:00
2:00 PM,59.0,48.2,67,30.18,6.2,SW,12.7,-,N/A,,Partly Cloudy,220,2013-01-09 13:00:00
2:30 PM,59.0,50.0,72,30.18,6.2,WSW,12.7,-,N/A,,Partly Cloudy,240,2013-01-09 13:30:00
3:00 PM,59.0,50.0,72,30.18,6.2,WSW,13.8,-,N/A,,Partly Cloudy,240,2013-01-09 14:00:00
3:30 PM,57.2,50.0,77,30.18,6.2,WSW,13.8,-,N/A,,Partly Cloudy,240,2013-01-09 14:30:00
4:00 PM,55.4,50.0,82,30.18,6.2,WSW,12.7,-,N/A,,Scattered Clouds,250,2013-01-09 15:00:00
4:30 PM,55.4,48.2,77,30.18,6.2,West,11.5,-,N/A,,Mostly Cloudy,260,2013-01-09 15:30:00
5:00 PM,55.4,48.2,77,30.18,6.2,WSW,10.4,-,N/A,,Mostly Cloudy,240,2013-01-09 16:00:00
5:30 PM,55.4,48.2,77,30.15,6.2,WSW,6.9,-,N/A,,Mostly Cloudy,250,2013-01-09 16:30:00
6:00 PM,55.4,48.2,77,30.15,6.2,West,8.1,-,N/A,,Mostly Cloudy,270,2013-01-09 17:00:00
6:30 PM,55.4,46.4,72,30.15,6.2,West,9.2,-,N/A,,Mostly Cloudy,270,2013-01-09 17:30:00
7:00 PM,53.6,46.4,77,30.18,6.2,West,9.2,-,N/A,,Mostly Cloudy,260,2013-01-09 18:00:00
7:30 PM,53.6,46.4,77,30.18,6.2,West,9.2,-,N/A,,Mostly Cloudy,270,2013-01-09 18:30:00
8:00 PM,50.0,44.6,82,30.18,6.2,West,5.8,-,N/A,,Scattered Clouds,270,2013-01-09 19:00:00
8:30 PM,51.8,44.6,76,30.15,6.2,West,5.8,-,N/A,,Partly Cloudy,280,2013-01-09 19:30:00
9:00 PM,51.8,44.6,76,30.15,6.2,West,8.1,-,N/A,,Partly Cloudy,280,2013-01-09 20:00:00
9:30 PM,51.8,44.6,76,30.15,6.2,West,10.4,-,N/A,,Partly Cloudy,270,2013-01-09 20:30:00
10:00 PM,51.8,42.8,71,30.15,6.2,WSW,9.2,-,N/A,,Partly Cloudy,250,2013-01-09 21:00:00
10:30 PM,51.8,42.8,71,30.15,6.2,WSW,11.5,-,N/A,,Partly Cloudy,250,2013-01-09 21:30:00
11:00 PM,51.8,44.6,76,30.15,6.2,WSW,12.7,-,N/A,,Partly Cloudy,240,2013-01-09 22:00:00
11:30 PM,51.8,44.6,76,30.15,6.2,WSW,10.4,-,N/A,,Partly Cloudy,240,2013-01-09 22:30:00